643  
ASUS44 KMEG 100510  
RWRMEG  
MEMPHIS CWA HOURLY WEATHER ROUNDUP  
NATIONAL WEATHER SERVICE MEMPHIS TN  
1200 AM CDT WED AUG 10 2022  
   
..WEST TENNESSEE
 
 
 
CITY SKY/WX TMP DP RH WIND PRES REMARKS
 
MEMPHIS INTL MOCLDY 76 71 85 S8 30.09R  
NWS MEMPHIS N/A 73 N/A N/A MISG N/A  
JACKSON MOCLDY 71 70 96 CALM N/A  
COVINGTON CLEAR 73 73 100 CALM 30.08R  
BOLIVAR PTCLDY 72 70 94 CALM 30.09R  
LEXINGTON MOCLDY 70 70 100 CALM 30.09R  
SELMER CLEAR 70 70 100 CALM 30.10R  
SAVANNAH PTCLDY 72 70 94 CALM 30.10R  
DYERSBURG CLOUDY 73 32 22 SE3 30.10S  
UNION CITY MOCLDY 73 73 100 CALM 30.08R  
PARIS CLEAR 72 72 100 CALM 30.09R  
HUNTINGDON CLEAR 72 72 100 CALM 30.09R  
 
   
..EASTERN ARKANSAS
 
 
 
CITY SKY/WX TMP DP RH WIND PRES REMARKS
 
JONESBORO LGT RAIN 76 74 93 SW3 30.07S  
WEST MEMPHIS MOCLDY 74 71 91 SE8 30.07R  
BATESVILLE LGT RAIN 75 74 96 E5 30.09S  
NEWPORT CLOUDY 75 73 93 E5 30.07F  
WALNUT RIDGE MOCLDY 74 74 100 W8 30.05F  
BLYTHEVILLE CLOUDY 74 72 93 SE3 30.08S  
SEARCY MOCLDY 75 74 96 CALM 30.07S  
STUTTGART PTCLDY 77 74 90 S7 30.08S  
PINE BLUFF PTCLDY 75 72 90 S5 30.07R  
MONTICELLO PTCLDY 74 71 91 W3 30.08R  
 
   
..NORTH MISSISSIPPI
 
 
 
CITY SKY/WX TMP DP RH WIND PRES REMARKS
 
TUPELO MOCLDY 78 73 84 CALM 30.10R  
OXFORD MOCLDY 72 72 100 CALM 30.12S  
BATESVILLE MOCLDY 72 72 100 CALM 30.09S  
OLIVE BRANCH MOCLDY 72 72 100 CALM 30.09S  
TUNICA MOCLDY 74 73 98 S6 30.09R  
CLARKSDALE PTCLDY 75 75 100 SE5 30.08F  
CORINTH MOCLDY 72 72 100 SE5 30.10S  
IUKA MOCLDY 71 71 100 CALM 30.14R  
GREENWOOD CLEAR 74 72 93 CALM 30.09R  
COLUMBUS PTCLDY 72 71 96 CALM 30.06R  
STARKVILLE PTCLDY N/A N/A N/A CALM 30.09R  
GOLDEN TRIANGL PTCLDY 72 72 100 S3 30.11R  
 
   
..SOUTHEAST MISSOURI
 
 
 
CITY SKY/WX TMP DP RH WIND PRES REMARKS
 
KENNETT LGT RAIN 75 75 100 CALM 30.06S  
WEST PLAINS CLOUDY 75 71 87 E3 30.13R  
POPLAR BLUFF LGT RAIN 72 71 97 NW3 30.08S  
CAPE GIRARDEAU CLOUDY 75 74 96 NW6 30.09S  
 
   
..NORTHWEST ALABAMA
 
 
 
CITY SKY/WX TMP DP RH WIND PRES REMARKS
 
MUSCLE SHOALS MOCLDY 75 73 93 CALM 30.12R  
 
   
..MIDDLE TENNESSEE
 
 
 
CITY SKY/WX TMP DP RH WIND PRES REMARKS
 
NASHVILLE MOCLDY 75 70 84 SE6 30.12R  
CLARKSVILLE MOCLDY 74 70 87 E3 30.11R  
DICKSON CLEAR 72 70 94 CALM 30.11R  
LEWISBURG PTCLDY 72 72 100 CALM 30.13R  
 
   
..WESTERN KENTUCKY
 
 
 
CITY SKY/WX TMP DP RH WIND PRES REMARKS
 
PADUCAH MOCLDY 74 71 91 NW3 30.07S  
FORT CAMPBELL MOCLDY 73 72 99 SE5 30.10R  
 
   
..CENTRAL ARKANSAS
 
 
 
CITY SKY/WX TMP DP RH WIND PRES REMARKS
 
LITTLE ROCK PTCLDY 77 72 84 S6 30.07R  
 
SKY/WX REPORTED AS FAIR MEANS FEW OR NO CLOUDS BELOW  
12 THOUSAND FEET.  
 
 
 
CLICK HERE TO GO TO PREVIOUS BULLETINS.

The Nexlab TN Page
The Nexlab MS Page
The Nexlab AR Page Main Text Page